DW9085 Weather Reports


time (UTC)temp
F
wind
direction
speed
knots
gust
knots
rain 1hr
in
rain 24hr
in
rain mn
in
humidity
%
barometer
mb
20260505194552 81 285 3.5 11.3 0.00 0.02 0.02 27 1001.9
20260505193050 82 321 2.6 9.6 0.00 0.02 0.02 30 1002.3
20260505191555 82 338 2.6 8.7 0.00 0.02 0.02 28 1002.4
20260505190049 82 209 0.9 5.2 0.00 0.02 0.02 30 1002.8
20260505184551 83 305 0.0 4.3 0.00 0.02 0.02 30 1003.0
20260505183048 81 62 0.9 7.0 0.00 0.02 0.02 33 1003.0
20260505181546 81 239 2.6 11.3 0.00 0.02 0.02 34 1003.2
20260505180047 81 24 0.9 6.1 0.00 0.02 0.02 34 1003.3
20260505174544 81 82 2.6 9.6 0.00 0.02 0.02 32 1003.4
20260505173042 81 255 0.9 7.0 0.00 0.02 0.02 35 1003.4
20260505171539 80 301 0.9 5.2 0.00 0.02 0.02 37 1003.6
20260505170038 80 312 1.7 7.0 0.00 0.02 0.02 38 1003.9
20260505164537 79 108 0.9 4.3 0.00 0.02 0.02 39 1004.0
20260505163034 78 330 0.9 7.8 0.00 0.02 0.02 37 1004.2
20260505161534 79 247 0.9 3.5 0.00 0.02 0.02 38 1004.4
20260505153025 75 146 0.9 6.1 0.00 0.02 0.02 45 1004.8
20260505151532 75 259 0.9 3.5 0.00 0.02 0.02 44 1005.0
20260505124557 64 92 0.0 4.3 0.00 0.02 0.02 62 1004.9
20260505123054 61 128 0.0 1.7 0.00 0.02 0.02 69 1005.0
20260505121550 59 155 0.0 1.7 0.02 0.02 0.02 75 1005.1
20260505120055 57 312 0.0 0.0 0.02 0.02 0.02 79 1005.1
20260505114547 57 61 0.0 0.0 0.02 0.02 0.02 79 1005.2
20260505113052 57 61 0.0 1.7 0.02 0.02 0.02 79 1005.1
20260505111548 57 249 0.0 2.6 0.00 0.00 0.00 74 1005.1
20260505101544 58 188 0.0 2.6 0.00 0.00 0.00 65 1005.0
20260505100040 57 311 0.0 1.7 0.00 0.00 0.00 67 1004.6
20260505094540 56 37 0.0 2.6 0.00 0.00 0.00 68 1004.3
20260505093050 54 44 0.0 1.7 0.00 0.00 0.00 73 1004.1
20260505091539 52 26 0.0 0.9 0.00 0.00 0.00 77 1004.2
20260505090037 52 26 0.0 0.0 0.00 0.00 0.00 75 1004.2
20260505084536 53 26 0.0 1.7 0.00 0.00 0.00 75 1004.3
20260505083040 53 26 0.0 0.0 0.00 0.00 0.00 73 1004.2
20260505081535 54 26 0.0 0.0 0.00 0.00 0.00 72 1004.2
20260505080035 55 26 0.0 0.0 0.00 0.00 0.00 70 1004.1
20260505074534 55 26 0.0 0.0 0.00 0.00 0.00 68 1004.3
20260505073034 57 26 0.0 0.0 0.00 0.00 0.00 66 1004.2
20260505071534 57 26 0.0 1.7 0.00 0.00 0.00 65 1004.2
20260505070036 58 40 0.0 2.6 0.00 0.00 0.00 63 1004.1
20260505064530 57 223 0.0 2.6 0.00 0.00 0.00 64 1004.1
20260505063029 55 64 0.0 2.6 0.00 0.00 0.00 68 1004.2
20260505061538 54 189 0.0 2.6 0.00 0.00 0.00 69 1004.5
20260505060027 53 136 0.0 0.0 0.00 0.00 0.00 70 1004.6
20260505054540 53 136 0.0 0.0 0.00 0.00 0.00 69 1004.6
20260505053027 53 136 0.0 0.0 0.00 0.00 0.00 69 1004.6
20260505051524 54 136 0.0 0.0 0.00 0.00 0.00 67 1004.6
20260505041517 56 136 0.0 0.0 0.00 0.00 0.00 61 1004.9
20260505040033 56 136 0.0 0.9 0.00 0.00 0.00 60 1004.9
20260505034513 56 136 0.0 1.7 0.00 0.00 0.00 60 1005.0
20260505033015 56 69 0.0 0.0 0.00 0.00 0.00 60 1005.0
20260505031514 57 69 0.0 0.0 0.00 0.00 0.00 59 1005.0
20260505030016 57 69 0.0 0.0 0.00 0.00 0.00 59 1005.1
20260505024512 57 69 0.0 0.0 0.00 0.00 0.00 56 1005.1
20260505023013 58 69 0.0 0.9 0.00 0.00 0.00 54 1005.1
20260505021512 58 69 0.0 0.9 0.00 0.00 0.00 54 1005.3
20260505020013 57 69 0.0 0.9 0.00 0.00 0.00 52 1005.2
20260505014514 58 69 0.0 0.9 0.00 0.00 0.00 53 1005.1
20260505013011 58 69 0.0 0.0 0.00 0.00 0.00 50 1005.1
20260505011511 59 69 0.0 0.0 0.00 0.00 0.00 48 1004.7
20260505010011 60 69 0.0 0.0 0.00 0.00 0.00 46 1004.6
20260505004516 61 69 0.0 0.9 0.00 0.00 0.00 46 1004.4
20260505003011 62 69 0.0 0.9 0.00 0.00 0.00 44 1004.4
20260505001510 63 69 0.0 0.9 0.00 0.00 0.00 43 1004.0
20260505000009 65 69 0.0 0.9 0.00 0.00 0.00 40 1003.8
20260504234511 66 69 0.0 4.3 0.00 0.00 0.00 38 1003.5
20260504233009 67 54 0.0 0.9 0.00 0.00 0.00 35 1003.5
20260504231509 68 54 0.0 2.6 0.00 0.00 0.00 35 1003.0
20260504230009 68 63 0.0 3.5 0.00 0.00 0.00 34 1003.0
20260504224508 69 65 0.0 4.3 0.00 0.00 0.00 33 1003.1
20260504223010 70 269 0.0 3.5 0.00 0.00 0.00 32 1003.1
20260504221509 70 9 0.0 3.5 0.00 0.00 0.00 33 1003.2
20260504220023 70 50 0.0 7.0 0.00 0.00 0.00 31 1003.4
20260504214510 71 69 1.7 6.1 0.00 0.00 0.00 30 1003.5
20260504213009 71 246 0.9 5.2 0.00 0.00 0.00 30 1003.6
20260504211506 71 342 0.0 4.3 0.00 0.00 0.00 31 1003.6
20260504210006 71 61 0.9 6.1 0.00 0.00 0.00 33 1003.6
20260504204507 71 360 0.9 6.1 0.00 0.00 0.00 31 1003.6
20260504203004 71 30 0.0 5.2 0.00 0.00 0.00 30 1003.5
20260504201504 71 264 0.9 6.1 0.00 0.00 0.00 28 1003.6
20260504200005 70 317 0.9 4.3 0.00 0.00 0.00 29 1003.7